This is the latest recevied weather packets stored in our database for station/object KI5GCD-13. If no packets are shown the sender has not sent any weather packets the latest 10 day(s).
| Time | Temp. | Humidity | Pressure | Rain* | Wind** | Luminosity | Snow |
|---|---|---|---|---|---|---|---|
| 1777819487 | 17.78° C | 50% | 1014.5 hPa | 0 mm | 1.79 m/s, 257° | - | - |
| 1777819187 | 17.78° C | 51% | 1014.4 hPa | 0 mm | 1.34 m/s, 206° | - | - |
| 1777818887 | 17.78° C | 52% | 1014.5 hPa | 0 mm | 0.89 m/s, 230° | - | - |
| 1777818587 | 17.22° C | 53% | 1014.5 hPa | 0 mm | 0.89 m/s, 235° | - | - |
| 1777818287 | 17.22° C | 52% | 1014.4 hPa | 0 mm | 0.89 m/s, 178° | - | - |
| 1777817988 | 16.67° C | 53% | 1014.4 hPa | 0 mm | 1.34 m/s, 236° | - | - |
| 1777817687 | 16.67° C | 52% | 1014.8 hPa | 0 mm | 1.79 m/s, 211° | - | - |
| 1777817387 | 16.67° C | 55% | 1014.5 hPa | 0 mm | 0.45 m/s, 242° | - | - |
| 1777817087 | 16.11° C | 55% | 1014.7 hPa | 0 mm | 0.89 m/s, 227° | - | - |
| 1777816787 | 15.56° C | 57% | 1014.5 hPa | 0 mm | 0.45 m/s, 151° | - | - |
| 1777816487 | 15° C | 58% | 1014.8 hPa | 0 mm | 1.34 m/s, 175° | - | - |
| 1777816187 | 13.89° C | 70% | 1014.5 hPa | 0 mm | 0 m/s | - | - |
| 1777815887 | 12.78° C | 74% | 1014.5 hPa | 0 mm | 0 m/s | - | - |
| 1777815587 | 12.22° C | 74% | 1014.9 hPa | 0 mm | 0 m/s | - | - |
| 1777815287 | 11.67° C | 78% | 1014.5 hPa | 0 mm | 0 m/s | - | - |
| 1777814987 | 11.11° C | 78% | 1014.8 hPa | 0 mm | 0 m/s | - | - |
| 1777814687 | 10.56° C | 80% | 1014.9 hPa | 0 mm | 0 m/s | - | - |
| 1777814387 | 10° C | 83% | 1015 hPa | 0 mm | 0 m/s | - | - |
| 1777814087 | 8.89° C | 84% | 1014.9 hPa | 0 mm | 0 m/s | - | - |
| 1777813787 | 8.33° C | 88% | 1014.9 hPa | 0 mm | 0 m/s | - | - |
| 1777813487 | 7.78° C | 90% | 1014.7 hPa | 0 mm | 0 m/s | - | - |
| 1777813187 | 6.67° C | 92% | 1014.9 hPa | 0 mm | 0 m/s | - | - |
| 1777812887 | 6.67° C | 93% | 1014.8 hPa | 0 mm | 0 m/s | - | - |
| 1777812587 | 6.11° C | 95% | 1014.8 hPa | 0 mm | 0 m/s | - | - |
| 1777812287 | 5.56° C | 96% | 1015 hPa | 0 mm | 0 m/s | - | - |
* Rain latest hour (hover to see other rain measurements)
** Current wind speed in m/s (hover to see current wind gust speed)